PRIVATE WETTERSTATION BILLIGHEIM-ALLFELD                       ZURCK
Wetterdaten: Montag, 29.05.2017
Datum Zeit Temp. A. Temp. A. min Temp. A. max Feuchte A. Luftdruck Regen Wind Richtung Richtung Sonnenschein ET Solar Taupunkt Windchill Windben Empfang
29.05.2017 00:00 18,6 C 18,6 C 18,6 C 81 % 1015,5 hPa 0,0 l/m 0,0 km/h (0 Bft) N 0 0 min 0,025 mm 0 W/m 15,3 C 18,6 C 0,0 km/h (0 Bft) 99 %
29.05.2017 00:10 18,6 C 18,6 C 18,6 C 78 % 1015,4 hPa 0,0 l/m 0,0 km/h (0 Bft) N 0 0 min 0,000 mm 0 W/m 14,7 C 18,6 C 0,0 km/h (0 Bft) 99 %
29.05.2017 00:20 18,6 C 18,6 C 18,6 C 78 % 1015,2 hPa 0,0 l/m 0,0 km/h (0 Bft) N 0 0 min 0,000 mm 0 W/m 14,7 C 18,6 C 0,0 km/h (0 Bft) 100 %
29.05.2017 00:30 18,6 C 18,6 C 18,7 C 81 % 1014,6 hPa 0,0 l/m 3,2 km/h (1 Bft) N 360 0 min 0,000 mm 0 W/m 15,3 C 18,6 C 6,4 km/h (2 Bft) 100 %
29.05.2017 00:40 18,4 C 18,4 C 18,6 C 81 % 1014,6 hPa 0,0 l/m 0,0 km/h (0 Bft) O 90 0 min 0,000 mm 0 W/m 15,1 C 18,4 C 6,4 km/h (2 Bft) 100 %
29.05.2017 00:50 18,3 C 18,3 C 18,4 C 82 % 1014,7 hPa 0,0 l/m 0,0 km/h (0 Bft) N 0 0 min 0,000 mm 0 W/m 15,2 C 18,3 C 0,0 km/h (0 Bft) 100 %
29.05.2017 01:00 18,3 C 18,3 C 18,3 C 81 % 1014,6 hPa 0,0 l/m 3,2 km/h (1 Bft) NO 45 0 min 0,025 mm 0 W/m 15,0 C 18,3 C 6,4 km/h (2 Bft) 100 %
29.05.2017 01:10 18,5 C 18,3 C 18,6 C 80 % 1014,5 hPa 0,0 l/m 3,2 km/h (1 Bft) NO 45 0 min 0,000 mm 0 W/m 15,0 C 18,5 C 4,8 km/h (1 Bft) 100 %
29.05.2017 01:20 18,6 C 18,6 C 18,6 C 79 % 1014,3 hPa 0,0 l/m 0,0 km/h (0 Bft) N 0 0 min 0,000 mm 0 W/m 14,9 C 18,6 C 0,0 km/h (0 Bft) 100 %
29.05.2017 01:30 18,6 C 18,6 C 18,6 C 79 % 1014,4 hPa 0,0 l/m 1,6 km/h (1 Bft) NO 45 0 min 0,000 mm 0 W/m 14,9 C 18,6 C 6,4 km/h (2 Bft) 100 %
29.05.2017 01:40 18,5 C 18,5 C 18,6 C 80 % 1014,4 hPa 0,0 l/m 1,6 km/h (1 Bft) N 360 0 min 0,000 mm 0 W/m 15,0 C 18,5 C 4,8 km/h (1 Bft) 100 %
29.05.2017 01:50 18,3 C 18,3 C 18,5 C 80 % 1014,4 hPa 0,0 l/m 0,0 km/h (0 Bft) N 360 0 min 0,000 mm 0 W/m 14,8 C 18,3 C 4,8 km/h (1 Bft) 100 %
29.05.2017 02:00 18,0 C 18,0 C 18,3 C 81 % 1014,3 hPa 0,0 l/m 0,0 km/h (0 Bft) N 0 0 min 0,025 mm 0 W/m 14,7 C 18,0 C 0,0 km/h (0 Bft) 100 %
29.05.2017 02:10 17,7 C 17,7 C 18,0 C 82 % 1014,1 hPa 0,0 l/m 0,0 km/h (0 Bft) N 0 0 min 0,000 mm 0 W/m 14,6 C 17,7 C 0,0 km/h (0 Bft) 100 %
29.05.2017 02:20 17,6 C 17,6 C 17,7 C 82 % 1014,1 hPa 0,0 l/m 0,0 km/h (0 Bft) N 360 0 min 0,000 mm 0 W/m 14,5 C 17,6 C 3,2 km/h (1 Bft) 100 %
29.05.2017 02:30 17,6 C 17,6 C 17,6 C 82 % 1014,1 hPa 0,0 l/m 0,0 km/h (0 Bft) N 0 0 min 0,000 mm 0 W/m 14,5 C 17,6 C 0,0 km/h (0 Bft) 100 %
29.05.2017 02:40 17,4 C 17,4 C 17,6 C 83 % 1014,2 hPa 0,0 l/m 1,6 km/h (1 Bft) N 360 0 min 0,000 mm 0 W/m 14,5 C 17,4 C 4,8 km/h (1 Bft) 100 %
29.05.2017 02:50 17,2 C 17,2 C 17,4 C 83 % 1014,1 hPa 0,0 l/m 1,6 km/h (1 Bft) N 360 0 min 0,000 mm 0 W/m 14,3 C 17,2 C 3,2 km/h (1 Bft) 99 %
29.05.2017 03:00 16,9 C 16,9 C 17,2 C 84 % 1014,0 hPa 0,0 l/m 0,0 km/h (0 Bft) N 360 0 min 0,025 mm 0 W/m 14,2 C 16,9 C 3,2 km/h (1 Bft) 100 %
29.05.2017 03:10 16,7 C 16,7 C 16,9 C 85 % 1013,9 hPa 0,0 l/m 0,0 km/h (0 Bft) N 0 0 min 0,000 mm 0 W/m 14,2 C 16,7 C 0,0 km/h (0 Bft) 100 %
29.05.2017 03:20 16,5 C 16,5 C 16,7 C 86 % 1013,8 hPa 0,0 l/m 0,0 km/h (0 Bft) N 0 0 min 0,000 mm 0 W/m 14,1 C 16,5 C 0,0 km/h (0 Bft) 100 %
29.05.2017 03:30 16,3 C 16,3 C 16,5 C 86 % 1013,8 hPa 0,0 l/m 0,0 km/h (0 Bft) N 0 0 min 0,000 mm 0 W/m 14,0 C 16,3 C 0,0 km/h (0 Bft) 100 %
29.05.2017 03:40 16,2 C 16,2 C 16,3 C 87 % 1013,7 hPa 0,0 l/m 0,0 km/h (0 Bft) N 0 0 min 0,000 mm 0 W/m 14,0 C 16,2 C 0,0 km/h (0 Bft) 100 %
29.05.2017 03:50 16,2 C 16,2 C 16,3 C 87 % 1013,7 hPa 0,0 l/m 0,0 km/h (0 Bft) N 0 0 min 0,000 mm 0 W/m 14,0 C 16,2 C 0,0 km/h (0 Bft) 100 %
29.05.2017 04:00 16,2 C 16,2 C 16,2 C 87 % 1013,6 hPa 0,0 l/m 0,0 km/h (0 Bft) N 0 0 min 0,000 mm 0 W/m 14,0 C 16,2 C 0,0 km/h (0 Bft) 100 %
29.05.2017 04:10 16,3 C 16,2 C 16,3 C 86 % 1013,5 hPa 0,0 l/m 0,0 km/h (0 Bft) N 0 0 min 0,000 mm 0 W/m 14,0 C 16,3 C 0,0 km/h (0 Bft) 100 %
29.05.2017 04:20 16,2 C 16,2 C 16,3 C 86 % 1013,5 hPa 0,0 l/m 0,0 km/h (0 Bft) N 0 0 min 0,000 mm 0 W/m 13,9 C 16,2 C 0,0 km/h (0 Bft) 100 %
29.05.2017 04:30 16,2 C 16,2 C 16,2 C 86 % 1013,5 hPa 0,0 l/m 0,0 km/h (0 Bft) N 0 0 min 0,000 mm 0 W/m 13,9 C 16,2 C 0,0 km/h (0 Bft) 90 %
29.05.2017 04:40 16,1 C 16,1 C 16,2 C 87 % 1013,5 hPa 0,0 l/m 0,0 km/h (0 Bft) N 0 0 min 0,000 mm 0 W/m 13,9 C 16,1 C 0,0 km/h (0 Bft) 100 %
29.05.2017 04:50 16,0 C 16,0 C 16,1 C 87 % 1013,5 hPa 0,0 l/m 0,0 km/h (0 Bft) N 0 0 min 0,000 mm 0 W/m 13,8 C 16,0 C 0,0 km/h (0 Bft) 100 %
29.05.2017 05:00 15,9 C 15,8 C 16,0 C 87 % 1013,4 hPa 0,0 l/m 0,0 km/h (0 Bft) N 0 0 min 0,000 mm 0 W/m 13,7 C 15,9 C 0,0 km/h (0 Bft) 100 %
29.05.2017 05:10 15,7 C 15,7 C 15,8 C 88 % 1013,4 hPa 0,0 l/m 0,0 km/h (0 Bft) N 0 0 min 0,000 mm 0 W/m 13,7 C 15,7 C 0,0 km/h (0 Bft) 100 %
29.05.2017 05:20 15,6 C 15,6 C 15,7 C 88 % 1013,4 hPa 0,0 l/m 0,0 km/h (0 Bft) N 0 0 min 0,000 mm 0 W/m 13,6 C 15,6 C 0,0 km/h (0 Bft) 100 %
29.05.2017 05:30 15,6 C 15,6 C 15,6 C 88 % 1013,4 hPa 0,0 l/m 0,0 km/h (0 Bft) N 0 0 min 0,000 mm 0 W/m 13,6 C 15,6 C 0,0 km/h (0 Bft) 100 %
29.05.2017 05:40 15,5 C 15,5 C 15,6 C 88 % 1013,5 hPa 0,0 l/m 0,0 km/h (0 Bft) N 0 0 min 0,000 mm 5 W/m 13,5 C 15,5 C 0,0 km/h (0 Bft) 100 %
29.05.2017 05:50 15,5 C 15,5 C 15,5 C 89 % 1013,5 hPa 0,0 l/m 0,0 km/h (0 Bft) N 0 0 min 0,000 mm 9 W/m 13,7 C 15,5 C 0,0 km/h (0 Bft) 100 %
29.05.2017 06:00 15,5 C 15,5 C 15,5 C 89 % 1013,7 hPa 0,0 l/m 0,0 km/h (0 Bft) N 0 0 min 0,000 mm 9 W/m 13,7 C 15,5 C 0,0 km/h (0 Bft) 100 %
29.05.2017 06:10 15,6 C 15,5 C 15,6 C 89 % 1013,7 hPa 0,0 l/m 0,0 km/h (0 Bft) N 0 0 min 0,000 mm 16 W/m 13,8 C 15,6 C 0,0 km/h (0 Bft) 100 %
29.05.2017 06:20 15,6 C 15,6 C 15,6 C 89 % 1013,7 hPa 0,0 l/m 0,0 km/h (0 Bft) N 0 0 min 0,000 mm 25 W/m 13,8 C 15,6 C 0,0 km/h (0 Bft) 100 %
29.05.2017 06:30 15,7 C 15,6 C 15,7 C 89 % 1013,9 hPa 0,0 l/m 0,0 km/h (0 Bft) N 0 0 min 0,000 mm 35 W/m 13,9 C 15,7 C 0,0 km/h (0 Bft) 100 %
29.05.2017 06:40 15,8 C 15,7 C 15,8 C 89 % 1013,8 hPa 0,0 l/m 1,6 km/h (1 Bft) N 360 0 min 0,000 mm 47 W/m 14,0 C 15,8 C 3,2 km/h (1 Bft) 100 %
29.05.2017 06:50 16,0 C 15,8 C 16,0 C 89 % 1013,8 hPa 0,0 l/m 0,0 km/h (0 Bft) N 360 0 min 0,000 mm 62 W/m 14,2 C 16,0 C 1,6 km/h (1 Bft) 100 %
29.05.2017 07:00 16,2 C 16,0 C 16,2 C 89 % 1013,7 hPa 0,0 l/m 0,0 km/h (0 Bft) N 0 0 min 0,025 mm 77 W/m 14,4 C 16,2 C 0,0 km/h (0 Bft) 100 %
29.05.2017 07:10 16,4 C 16,2 C 16,4 C 89 % 1013,8 hPa 0,0 l/m 0,0 km/h (0 Bft) N 0 0 min 0,000 mm 93 W/m 14,6 C 16,4 C 0,0 km/h (0 Bft) 100 %
29.05.2017 07:20 16,8 C 16,4 C 16,8 C 89 % 1013,7 hPa 0,0 l/m 0,0 km/h (0 Bft) N 0 0 min 0,000 mm 105 W/m 15,0 C 16,8 C 0,0 km/h (0 Bft) 100 %
29.05.2017 07:30 17,1 C 16,8 C 17,1 C 89 % 1013,6 hPa 0,0 l/m 0,0 km/h (0 Bft) N 0 0 min 0,000 mm 141 W/m 15,3 C 17,1 C 0,0 km/h (0 Bft) 100 %
29.05.2017 07:40 17,4 C 17,1 C 17,4 C 89 % 1013,7 hPa 0,0 l/m 0,0 km/h (0 Bft) N 0 10 min 0,000 mm 153 W/m 15,6 C 17,4 C 0,0 km/h (0 Bft) 100 %
29.05.2017 07:50 17,8 C 17,5 C 17,8 C 87 % 1013,6 hPa 0,0 l/m 0,0 km/h (0 Bft) N 360 10 min 0,000 mm 153 W/m 15,6 C 17,8 C 1,6 km/h (1 Bft) 100 %
29.05.2017 08:00 18,1 C 17,8 C 18,1 C 86 % 1013,7 hPa 0,0 l/m 0,0 km/h (0 Bft) N 0 10 min 0,076 mm 171 W/m 15,7 C 18,1 C 0,0 km/h (0 Bft) 100 %
29.05.2017 08:10 18,5 C 18,2 C 18,5 C 86 % 1013,6 hPa 0,0 l/m 0,0 km/h (0 Bft) N 0 10 min 0,000 mm 153 W/m 16,1 C 18,5 C 0,0 km/h (0 Bft) 100 %
29.05.2017 08:20 18,9 C 18,5 C 18,9 C 85 % 1013,7 hPa 0,0 l/m 0,0 km/h (0 Bft) N 0 10 min 0,000 mm 404 W/m 16,3 C 18,9 C 0,0 km/h (0 Bft) 100 %
29.05.2017 08:30 19,7 C 19,0 C 19,7 C 82 % 1013,7 hPa 0,0 l/m 0,0 km/h (0 Bft) N 0 10 min 0,000 mm 422 W/m 16,5 C 19,7 C 0,0 km/h (0 Bft) 100 %
29.05.2017 08:40 20,9 C 19,7 C 20,9 C 82 % 1013,7 hPa 0,0 l/m 0,0 km/h (0 Bft) N 0 10 min 0,000 mm 457 W/m 17,7 C 20,9 C 0,0 km/h (0 Bft) 100 %
29.05.2017 08:50 21,8 C 20,9 C 21,8 C 78 % 1013,7 hPa 0,0 l/m 0,0 km/h (0 Bft) N 0 10 min 0,000 mm 496 W/m 17,8 C 21,8 C 0,0 km/h (0 Bft) 100 %
29.05.2017 09:00 22,8 C 21,8 C 22,8 C 76 % 1013,7 hPa 0,0 l/m 0,0 km/h (0 Bft) N 360 10 min 0,203 mm 512 W/m 18,3 C 22,8 C 1,6 km/h (1 Bft) 100 %
29.05.2017 09:10 23,3 C 22,9 C 23,3 C 71 % 1013,6 hPa 0,0 l/m 0,0 km/h (0 Bft) N 0 10 min 0,000 mm 564 W/m 17,7 C 23,3 C 0,0 km/h (0 Bft) 100 %
29.05.2017 09:20 24,0 C 23,3 C 24,0 C 70 % 1013,7 hPa 0,0 l/m 0,0 km/h (0 Bft) N 360 10 min 0,000 mm 584 W/m 18,2 C 24,0 C 1,6 km/h (1 Bft) 100 %
29.05.2017 09:30 24,1 C 24,0 C 24,1 C 64 % 1013,6 hPa 0,0 l/m 0,0 km/h (0 Bft) W 270 10 min 0,000 mm 642 W/m 16,9 C 24,1 C 1,6 km/h (1 Bft) 100 %
29.05.2017 09:40 24,4 C 24,1 C 24,4 C 66 % 1013,6 hPa 0,0 l/m 0,0 km/h (0 Bft) S-SW 202 10 min 0,000 mm 642 W/m 17,6 C 24,4 C 8,0 km/h (2 Bft) 100 %
29.05.2017 09:50 24,7 C 24,4 C 24,7 C 66 % 1013,4 hPa 0,0 l/m 3,2 km/h (1 Bft) S 180 10 min 0,000 mm 687 W/m 17,9 C 24,7 C 9,7 km/h (2 Bft) 100 %
29.05.2017 10:00 25,0 C 24,7 C 25,1 C 60 % 1013,5 hPa 0,0 l/m 0,0 km/h (0 Bft) S 180 10 min 0,356 mm 719 W/m 16,7 C 25,0 C 6,4 km/h (2 Bft) 100 %
29.05.2017 10:10 25,1 C 25,0 C 25,1 C 64 % 1013,4 hPa 0,0 l/m 1,6 km/h (1 Bft) S 180 10 min 0,000 mm 601 W/m 17,8 C 25,1 C 9,7 km/h (2 Bft) 100 %
29.05.2017 10:20 25,0 C 24,9 C 25,1 C 66 % 1013,5 hPa 0,0 l/m 0,0 km/h (0 Bft) S 180 10 min 0,000 mm 728 W/m 18,2 C 25,0 C 4,8 km/h (1 Bft) 100 %
29.05.2017 10:30 25,5 C 25,0 C 25,5 C 65 % 1013,4 hPa 0,0 l/m 1,6 km/h (1 Bft) S-SW 202 10 min 0,000 mm 726 W/m 18,4 C 25,5 C 8,0 km/h (2 Bft) 100 %
29.05.2017 10:40 25,9 C 25,5 C 25,9 C 64 % 1013,3 hPa 0,0 l/m 0,0 km/h (0 Bft) S-SO 157 10 min 0,000 mm 738 W/m 18,6 C 25,9 C 6,4 km/h (2 Bft) 99 %
29.05.2017 10:50 26,2 C 25,9 C 26,2 C 63 % 1013,2 hPa 0,0 l/m 1,6 km/h (1 Bft) S 180 10 min 0,000 mm 758 W/m 18,6 C 26,2 C 8,0 km/h (2 Bft) 100 %
29.05.2017 11:00 26,7 C 26,2 C 26,7 C 63 % 1013,1 hPa 0,0 l/m 0,0 km/h (0 Bft) S 180 10 min 0,432 mm 777 W/m 19,1 C 26,7 C 6,4 km/h (2 Bft) 100 %
29.05.2017 11:10 27,0 C 26,7 C 27,0 C 64 % 1013,1 hPa 0,0 l/m 0,0 km/h (0 Bft) S-SW 202 10 min 0,000 mm 795 W/m 19,6 C 27,0 C 8,0 km/h (2 Bft) 100 %
29.05.2017 11:20 27,2 C 27,0 C 27,2 C 64 % 1013,0 hPa 0,0 l/m 0,0 km/h (0 Bft) S 180 10 min 0,000 mm 812 W/m 19,8 C 27,2 C 1,6 km/h (1 Bft) 100 %
29.05.2017 11:30 27,5 C 27,2 C 27,5 C 66 % 1012,9 hPa 0,0 l/m 0,0 km/h (0 Bft) S-SW 202 10 min 0,000 mm 826 W/m 20,6 C 27,5 C 8,0 km/h (2 Bft) 100 %
29.05.2017 11:40 27,8 C 27,6 C 27,8 C 62 % 1012,9 hPa 0,0 l/m 3,2 km/h (1 Bft) S-SW 202 10 min 0,000 mm 840 W/m 19,8 C 27,8 C 9,7 km/h (2 Bft) 100 %
29.05.2017 11:50 28,2 C 27,7 C 28,2 C 63 % 1013,0 hPa 0,0 l/m 4,8 km/h (1 Bft) S-SW 202 10 min 0,000 mm 851 W/m 20,5 C 28,2 C 9,7 km/h (2 Bft) 100 %
29.05.2017 12:00 28,4 C 28,3 C 28,4 C 64 % 1012,9 hPa 0,0 l/m 4,8 km/h (1 Bft) S 180 10 min 0,533 mm 861 W/m 20,9 C 28,4 C 9,7 km/h (2 Bft) 100 %
29.05.2017 12:10 28,6 C 28,5 C 28,6 C 61 % 1012,9 hPa 0,0 l/m 1,6 km/h (1 Bft) S-SW 202 10 min 0,000 mm 868 W/m 20,3 C 28,6 C 8,0 km/h (2 Bft) 100 %
29.05.2017 12:20 28,8 C 28,6 C 28,8 C 58 % 1012,8 hPa 0,0 l/m 1,6 km/h (1 Bft) S 180 10 min 0,000 mm 877 W/m 19,7 C 28,8 C 8,0 km/h (2 Bft) 99 %
29.05.2017 12:30 29,0 C 28,8 C 29,0 C 62 % 1012,7 hPa 0,0 l/m 3,2 km/h (1 Bft) S-SW 202 10 min 0,000 mm 886 W/m 21,0 C 29,0 C 9,7 km/h (2 Bft) 100 %
29.05.2017 12:40 29,4 C 29,0 C 29,4 C 64 % 1012,8 hPa 0,0 l/m 1,6 km/h (1 Bft) S-SW 202 10 min 0,000 mm 891 W/m 21,9 C 29,4 C 8,0 km/h (2 Bft) 100 %
29.05.2017 12:50 29,4 C 29,4 C 29,5 C 58 % 1012,7 hPa 0,0 l/m 0,0 km/h (0 Bft) S 180 10 min 0,000 mm 898 W/m 20,3 C 29,4 C 1,6 km/h (1 Bft) 100 %
29.05.2017 13:00 29,4 C 29,3 C 29,4 C 60 % 1012,5 hPa 0,0 l/m 1,6 km/h (1 Bft) S-SO 157 10 min 0,584 mm 900 W/m 20,8 C 29,4 C 8,0 km/h (2 Bft) 100 %
29.05.2017 13:10 29,8 C 29,4 C 29,8 C 57 % 1012,5 hPa 0,0 l/m 3,2 km/h (1 Bft) S-SW 202 10 min 0,000 mm 907 W/m 20,3 C 29,8 C 9,7 km/h (2 Bft) 100 %
29.05.2017 13:20 30,2 C 29,8 C 30,2 C 55 % 1012,5 hPa 0,0 l/m 1,6 km/h (1 Bft) S-SW 202 10 min 0,000 mm 909 W/m 20,1 C 30,2 C 8,0 km/h (2 Bft) 100 %
29.05.2017 13:30 30,2 C 30,2 C 30,3 C 51 % 1012,3 hPa 0,0 l/m 1,6 km/h (1 Bft) S 180 10 min 0,000 mm 907 W/m 18,9 C 30,2 C 6,4 km/h (2 Bft) 100 %
29.05.2017 13:40 30,4 C 30,2 C 30,4 C 51 % 1012,3 hPa 0,0 l/m 0,0 km/h (0 Bft) S 180 10 min 0,000 mm 905 W/m 19,1 C 30,4 C 9,7 km/h (2 Bft) 100 %
29.05.2017 13:50 30,8 C 30,4 C 30,8 C 51 % 1012,2 hPa 0,0 l/m 3,2 km/h (1 Bft) SW 225 10 min 0,000 mm 904 W/m 19,5 C 30,8 C 9,7 km/h (2 Bft) 100 %
29.05.2017 14:00 31,0 C 30,8 C 31,1 C 54 % 1012,1 hPa 0,0 l/m 4,8 km/h (1 Bft) SW 225 10 min 0,610 mm 900 W/m 20,6 C 31,0 C 9,7 km/h (2 Bft) 100 %
29.05.2017 14:10 31,1 C 31,0 C 31,1 C 52 % 1012,0 hPa 0,0 l/m 3,2 km/h (1 Bft) W-SW 247 10 min 0,000 mm 893 W/m 20,1 C 31,1 C 11,3 km/h (2 Bft) 100 %
29.05.2017 14:20 31,0 C 31,0 C 31,1 C 49 % 1011,9 hPa 0,0 l/m 1,6 km/h (1 Bft) S-SW 202 10 min 0,000 mm 891 W/m 19,0 C 31,0 C 9,7 km/h (2 Bft) 100 %
29.05.2017 14:30 31,1 C 31,0 C 31,1 C 48 % 1011,8 hPa 0,0 l/m 3,2 km/h (1 Bft) S-SW 202 10 min 0,000 mm 884 W/m 18,8 C 31,1 C 11,3 km/h (2 Bft) 100 %
29.05.2017 14:40 30,9 C 30,9 C 31,1 C 49 % 1011,9 hPa 0,0 l/m 1,6 km/h (1 Bft) S-SW 202 10 min 0,000 mm 870 W/m 18,9 C 30,9 C 11,3 km/h (2 Bft) 100 %
29.05.2017 14:50 30,7 C 30,7 C 30,9 C 48 % 1011,8 hPa 0,0 l/m 1,6 km/h (1 Bft) S-SO 157 10 min 0,000 mm 853 W/m 18,4 C 30,7 C 16,1 km/h (3 Bft) 98 %
29.05.2017 15:00 30,5 C 30,5 C 30,7 C 48 % 1011,8 hPa 0,0 l/m 1,6 km/h (1 Bft) S 180 10 min 0,610 mm 837 W/m 18,2 C 30,5 C 8,0 km/h (2 Bft) 97 %
29.05.2017 15:10 30,6 C 30,4 C 30,6 C 47 % 1011,8 hPa 0,0 l/m 1,6 km/h (1 Bft) SO 135 10 min 0,000 mm 831 W/m 18,0 C 30,6 C 9,7 km/h (2 Bft) 98 %
29.05.2017 15:20 30,9 C 30,6 C 30,9 C 47 % 1011,6 hPa 0,0 l/m 1,6 km/h (1 Bft) W 270 10 min 0,000 mm 269 W/m 18,2 C 30,9 C 9,7 km/h (2 Bft) 97 %
29.05.2017 15:30 31,3 C 30,9 C 31,3 C 46 % 1011,6 hPa 0,0 l/m 0,0 km/h (0 Bft) W-NW 292 10 min 0,000 mm 304 W/m 18,3 C 31,3 C 8,0 km/h (2 Bft) 98 %
29.05.2017 15:40 31,3 C 31,3 C 31,3 C 49 % 1011,4 hPa 0,0 l/m 0,0 km/h (0 Bft) W-NW 292 10 min 0,000 mm 169 W/m 19,3 C 31,3 C 6,4 km/h (2 Bft) 97 %
29.05.2017 15:50 31,5 C 31,3 C 31,5 C 48 % 1011,4 hPa 0,0 l/m 3,2 km/h (1 Bft) W 270 10 min 0,000 mm 721 W/m 19,1 C 31,5 C 9,7 km/h (2 Bft) 97 %
29.05.2017 16:00 31,7 C 31,5 C 31,7 C 47 % 1011,4 hPa 0,0 l/m 6,4 km/h (2 Bft) NW 315 10 min 0,279 mm 735 W/m 19,0 C 31,7 C 16,1 km/h (3 Bft) 98 %
29.05.2017 16:20 31,5 C 31,4 C 31,7 C 48 % 1011,1 hPa 0,0 l/m 4,2 km/h (1 Bft) W-NW 290 20 min 0,000 mm 366 W/m 19,1 C 31,5 C 9,7 km/h (2 Bft) 100 %
29.05.2017 16:30 31,4 C 31,4 C 31,5 C 51 % 1011,1 hPa 0,0 l/m 0,6 km/h (0 Bft) S-SW 202 10 min 0,000 mm 369 W/m 20,0 C 31,4 C 6,4 km/h (2 Bft) 100 %
29.05.2017 16:40 31,1 C 31,1 C 31,4 C 46 % 1010,9 hPa 0,0 l/m 0,0 km/h (0 Bft) S-SW 202 0 min 0,000 mm 84 W/m 18,1 C 31,1 C 1,6 km/h (1 Bft) 100 %
29.05.2017 16:50 30,9 C 30,9 C 31,1 C 47 % 1010,9 hPa 0,0 l/m 3,8 km/h (1 Bft) W-NW 297 0 min 0,000 mm 107 W/m 18,2 C 30,9 C 9,7 km/h (2 Bft) 100 %
29.05.2017 17:00 30,9 C 30,9 C 31,0 C 47 % 1010,9 hPa 0,0 l/m 1,2 km/h (1 Bft) W 261 0 min 0,205 mm 105 W/m 18,2 C 30,9 C 6,4 km/h (2 Bft) 100 %
29.05.2017 17:10 30,7 C 30,7 C 30,9 C 51 % 1010,7 hPa 0,0 l/m 0,7 km/h (0 Bft) SW 214 0 min 0,000 mm 81 W/m 19,4 C 30,7 C 6,4 km/h (2 Bft) 100 %
29.05.2017 17:20 30,0 C 30,0 C 30,7 C 56 % 1010,5 hPa 0,0 l/m 0,8 km/h (0 Bft) SW 214 0 min 0,000 mm 111 W/m 20,2 C 30,0 C 8,0 km/h (2 Bft) 100 %
29.05.2017 17:30 29,3 C 29,3 C 30,0 C 56 % 1010,4 hPa 0,0 l/m 0,2 km/h (0 Bft) SW 214 0 min 0,000 mm 116 W/m 19,6 C 29,3 C 3,2 km/h (1 Bft) 100 %
29.05.2017 17:40 28,6 C 28,6 C 29,3 C 58 % 1010,4 hPa 0,0 l/m 0,0 km/h (0 Bft) SW 214 0 min 0,000 mm 116 W/m 19,5 C 28,6 C 0,0 km/h (0 Bft) 100 %
29.05.2017 17:50 28,1 C 28,1 C 28,6 C 62 % 1010,3 hPa 0,0 l/m 0,0 km/h (0 Bft) S-SW 213 0 min 0,000 mm 128 W/m 20,1 C 28,1 C 0,0 km/h (0 Bft) 100 %
29.05.2017 18:00 27,8 C 27,8 C 28,1 C 61 % 1010,3 hPa 0,0 l/m 0,0 km/h (0 Bft) S-SW 213 0 min 0,076 mm 146 W/m 19,6 C 27,8 C 0,0 km/h (0 Bft) 100 %
29.05.2017 18:10 27,5 C 27,5 C 27,8 C 64 % 1010,4 hPa 0,0 l/m 0,0 km/h (0 Bft) SW 214 0 min 0,000 mm 139 W/m 20,1 C 27,5 C 0,0 km/h (0 Bft) 100 %
29.05.2017 18:20 27,3 C 27,3 C 27,6 C 64 % 1010,4 hPa 0,0 l/m 0,0 km/h (0 Bft) S-SW 213 0 min 0,000 mm 137 W/m 19,9 C 27,3 C 0,0 km/h (0 Bft) 100 %
29.05.2017 18:30 27,2 C 27,2 C 27,3 C 67 % 1010,2 hPa 0,0 l/m 0,0 km/h (0 Bft) S-SW 213 10 min 0,000 mm 174 W/m 20,5 C 27,2 C 0,0 km/h (0 Bft) 100 %
29.05.2017 18:40 27,6 C 27,2 C 27,6 C 68 % 1010,3 hPa 0,0 l/m 0,0 km/h (0 Bft) SW 214 10 min 0,000 mm 185 W/m 21,1 C 27,6 C 0,0 km/h (0 Bft) 100 %
29.05.2017 18:50 27,9 C 27,6 C 27,9 C 64 % 1010,3 hPa 0,0 l/m 0,0 km/h (0 Bft) SW 214 10 min 0,000 mm 174 W/m 20,4 C 27,9 C 0,0 km/h (0 Bft) 100 %
29.05.2017 19:00 28,2 C 27,9 C 28,2 C 64 % 1010,3 hPa 0,0 l/m 0,0 km/h (0 Bft) SW 214 10 min 0,000 mm 162 W/m 20,7 C 28,2 C 0,0 km/h (0 Bft) 100 %
29.05.2017 19:10 28,2 C 28,2 C 28,3 C 66 % 1010,3 hPa 0,0 l/m 1,2 km/h (1 Bft) S 176 0 min 0,102 mm 151 W/m 21,2 C 28,2 C 9,7 km/h (2 Bft) 100 %
29.05.2017 19:20 28,0 C 28,0 C 28,2 C 68 % 1010,4 hPa 0,0 l/m 0,3 km/h (0 Bft) S-SO 159 10 min 0,000 mm 155 W/m 21,5 C 28,0 C 8,0 km/h (2 Bft) 100 %
29.05.2017 19:30 27,8 C 27,8 C 28,0 C 62 % 1010,5 hPa 0,0 l/m 3,7 km/h (1 Bft) S-SO 161 0 min 0,000 mm 142 W/m 19,8 C 27,8 C 8,0 km/h (2 Bft) 100 %
29.05.2017 19:40 27,6 C 27,6 C 27,8 C 62 % 1010,6 hPa 0,0 l/m 1,9 km/h (1 Bft) S-SO 158 0 min 0,000 mm 102 W/m 19,6 C 27,6 C 6,4 km/h (2 Bft) 100 %
29.05.2017 19:50 27,3 C 27,3 C 27,6 C 59 % 1010,6 hPa 0,0 l/m 0,0 km/h (0 Bft) S-SO 158 0 min 0,000 mm 86 W/m 18,6 C 27,3 C 3,2 km/h (1 Bft) 100 %
29.05.2017 20:00 27,2 C 27,2 C 27,3 C 59 % 1010,4 hPa 0,0 l/m 0,0 km/h (0 Bft) S-SO 158 0 min 0,102 mm 63 W/m 18,5 C 27,2 C 0,0 km/h (0 Bft) 100 %
29.05.2017 20:10 26,8 C 26,8 C 27,2 C 61 % 1010,4 hPa 0,0 l/m 0,0 km/h (0 Bft) S-SO 158 0 min 0,000 mm 44 W/m 18,6 C 26,8 C 0,0 km/h (0 Bft) 100 %
29.05.2017 20:20 26,5 C 26,5 C 26,8 C 64 % 1010,3 hPa 0,0 l/m 0,0 km/h (0 Bft) S-SO 158 0 min 0,000 mm 40 W/m 19,1 C 26,5 C 0,0 km/h (0 Bft) 100 %
29.05.2017 20:30 26,1 C 26,1 C 26,5 C 63 % 1010,4 hPa 0,0 l/m 0,0 km/h (0 Bft) S-SO 158 0 min 0,000 mm 35 W/m 18,5 C 26,1 C 0,0 km/h (0 Bft) 100 %
29.05.2017 20:40 25,8 C 25,8 C 26,1 C 61 % 1010,4 hPa 0,0 l/m 0,0 km/h (0 Bft) S-SO 158 0 min 0,000 mm 32 W/m 17,7 C 25,8 C 0,0 km/h (0 Bft) 100 %
29.05.2017 20:50 25,6 C 25,6 C 25,8 C 63 % 1010,3 hPa 0,0 l/m 0,0 km/h (0 Bft) S-SO 158 0 min 0,000 mm 28 W/m 18,0 C 25,6 C 0,0 km/h (0 Bft) 100 %
29.05.2017 21:00 25,4 C 25,4 C 25,6 C 68 % 1010,3 hPa 0,0 l/m 0,0 km/h (0 Bft) S-SO 158 0 min 0,025 mm 21 W/m 19,1 C 25,4 C 0,0 km/h (0 Bft) 100 %
29.05.2017 21:10 25,2 C 25,2 C 25,4 C 65 % 1010,3 hPa 0,0 l/m 0,0 km/h (0 Bft) N 0 0 min 0,000 mm 21 W/m 18,1 C 25,2 C 0,0 km/h (0 Bft) 100 %
29.05.2017 21:20 25,0 C 25,0 C 25,2 C 66 % 1010,3 hPa 0,0 l/m 0,0 km/h (0 Bft) N 0 0 min 0,000 mm 9 W/m 18,2 C 25,0 C 0,0 km/h (0 Bft) 100 %
29.05.2017 21:30 24,7 C 24,7 C 25,0 C 67 % 1010,5 hPa 0,0 l/m 0,0 km/h (0 Bft) N 0 0 min 0,000 mm 0 W/m 18,1 C 24,7 C 0,0 km/h (0 Bft) 100 %
29.05.2017 21:40 24,3 C 24,3 C 24,7 C 68 % 1010,6 hPa 0,0 l/m 0,0 km/h (0 Bft) N 0 0 min 0,000 mm 0 W/m 18,0 C 24,3 C 0,0 km/h (0 Bft) 100 %
29.05.2017 21:50 23,9 C 23,9 C 24,3 C 69 % 1010,7 hPa 0,0 l/m 0,0 km/h (0 Bft) N 0 0 min 0,000 mm 0 W/m 17,9 C 23,9 C 0,0 km/h (0 Bft) 100 %
29.05.2017 22:00 23,4 C 23,4 C 23,9 C 66 % 1010,7 hPa 0,0 l/m 0,0 km/h (0 Bft) N 0 0 min 0,000 mm 0 W/m 16,7 C 23,4 C 0,0 km/h (0 Bft) 100 %
29.05.2017 22:10 23,2 C 23,2 C 23,4 C 69 % 1010,7 hPa 0,0 l/m 0,0 km/h (0 Bft) N 0 0 min 0,000 mm 0 W/m 17,2 C 23,2 C 0,0 km/h (0 Bft) 100 %
29.05.2017 22:20 22,9 C 22,9 C 23,2 C 69 % 1010,7 hPa 0,0 l/m 0,0 km/h (0 Bft) N 0 0 min 0,000 mm 0 W/m 16,9 C 22,9 C 0,0 km/h (0 Bft) 100 %
29.05.2017 22:30 22,7 C 22,7 C 22,9 C 70 % 1010,8 hPa 0,0 l/m 0,0 km/h (0 Bft) N 0 0 min 0,000 mm 0 W/m 16,9 C 22,7 C 0,0 km/h (0 Bft) 100 %
29.05.2017 22:40 22,6 C 22,6 C 22,7 C 73 % 1010,9 hPa 0,0 l/m 0,0 km/h (0 Bft) S-SO 157 0 min 0,000 mm 0 W/m 17,5 C 22,6 C 1,6 km/h (1 Bft) 100 %
29.05.2017 22:50 22,3 C 22,3 C 22,6 C 75 % 1011,1 hPa 0,0 l/m 3,2 km/h (1 Bft) NW 315 0 min 0,000 mm 0 W/m 17,6 C 22,3 C 9,7 km/h (2 Bft) 100 %
29.05.2017 23:00 22,1 C 22,1 C 22,3 C 76 % 1010,9 hPa 0,0 l/m 0,0 km/h (0 Bft) N 0 0 min 0,025 mm 0 W/m 17,7 C 22,1 C 0,0 km/h (0 Bft) 100 %
29.05.2017 23:10 21,9 C 21,9 C 22,1 C 76 % 1010,8 hPa 0,0 l/m 0,0 km/h (0 Bft) N 0 0 min 0,000 mm 0 W/m 17,5 C 21,9 C 0,0 km/h (0 Bft) 100 %
29.05.2017 23:20 21,8 C 21,8 C 21,9 C 77 % 1010,8 hPa 0,0 l/m 0,0 km/h (0 Bft) N 0 0 min 0,000 mm 0 W/m 17,6 C 21,8 C 0,0 km/h (0 Bft) 100 %
29.05.2017 23:30 21,7 C 21,7 C 21,8 C 78 % 1011,1 hPa 0,0 l/m 1,6 km/h (1 Bft) NW 315 0 min 0,000 mm 0 W/m 17,7 C 21,7 C 6,4 km/h (2 Bft) 100 %
29.05.2017 23:40 21,6 C 21,6 C 21,7 C 79 % 1011,2 hPa 0,0 l/m 1,6 km/h (1 Bft) NW 315 0 min 0,000 mm 0 W/m 17,8 C 21,6 C 4,8 km/h (1 Bft) 100 %
29.05.2017 23:50 21,5 C 21,4 C 21,6 C 80 % 1011,1 hPa 0,0 l/m 0,0 km/h (0 Bft) NW 315 0 min 0,000 mm 0 W/m 17,9 C 21,5 C 3,2 km/h (1 Bft) 100 %
_ Min-Zeit 05:40 05:40 05:50 15:30 18:30 - 00:00 - - - - - 05:40 05:40 00:00 04:30
Minimum _ 15,5 C 15,5 C 15,5 C 46 % 1010,2 hPa - 0,0 km/h (0 Bft) - - - - - 13,5 C 15,5 C 0,0 km/h (0 Bft) 90 %
_ Max-Zeit 16:00 16:00 16:00 05:50 00:00 00:00 16:00 - - 16:20 14:00 13:20 12:40 16:00 14:50 00:20
Maximum _ 31,7 C 31,5 C 31,7 C 89 % 1015,5 hPa 0,0 l/m 6,4 km/h
NW (2 Bft)
- - 20 min 0,610 mm 909 W/m 21,9 C 31,7 C 16,1 km/h
S (3 Bft)
100 %
Durchschnitt _ 23,5 C 23,4 C 23,6 C 70 % 1012,5 hPa #0,0 l/m 0,8 km/h (0 Bft) S-SW - #9:50 h #4,343 mm 418 W/m 17,3 C 23,5 C 3,6 km/h (1 Bft) 100 %
PRIVATE WETTERSTATION BILLIGHEIM-ALLFELD - www.neckar-odenwald-wetter.de - Holger Sonntag